| time (UTC) | temp C | wind direction | speed KPH | gust KPH | rain 1hr cm | rain 24hr cm | rain mn cm | humidity % | barometer mb |
| 20260505040028 | 15 | 240 | 6.4 | 9.7 | 0.00 | 0.00 | 0.00 | 54 | 1004.2 |
| 20260505034526 | 15 | 243 | 3.2 | 8.0 | 0.00 | 0.00 | 0.00 | 54 | 1004.0 |
| 20260505033126 | 15 | 236 | 4.8 | 6.4 | 0.00 | 0.00 | 0.00 | 54 | 1003.8 |
| 20260505031540 | 15 | 232 | 1.6 | 6.4 | 0.00 | 0.00 | 0.00 | 52 | 1003.8 |
| 20260505030024 | 15 | 211 | 4.8 | 6.4 | 0.00 | 0.00 | 0.00 | 51 | 1003.9 |
| 20260505024533 | 15 | 205 | 3.2 | 6.4 | 0.00 | 0.00 | 0.00 | 50 | 1003.9 |
| 20260505023027 | 15 | 205 | 1.6 | 6.4 | 0.00 | 0.00 | 0.00 | 50 | 1003.9 |
| 20260505021526 | 15 | 204 | 3.2 | 4.8 | 0.00 | 0.00 | 0.00 | 49 | 1004.2 |
| 20260505020030 | 15 | 204 | 3.2 | 4.8 | 0.00 | 0.00 | 0.00 | 48 | 1004.2 |
| 20260505014528 | 16 | 204 | 3.2 | 6.4 | 0.00 | 0.00 | 0.00 | 46 | 1004.3 |
| 20260505013024 | 16 | 203 | 3.2 | 6.4 | 0.00 | 0.00 | 0.00 | 44 | 1004.1 |
| 20260505011530 | 17 | 200 | 3.2 | 4.8 | 0.00 | 0.00 | 0.00 | 41 | 1003.9 |
| 20260505010020 | 18 | 200 | 1.6 | 4.8 | 0.00 | 0.00 | 0.00 | 39 | 1003.7 |
| 20260505004540 | 18 | 200 | 3.2 | 6.4 | 0.00 | 0.00 | 0.00 | 37 | 1003.7 |
| 20260505003019 | 19 | 199 | 3.2 | 6.4 | 0.00 | 0.00 | 0.00 | 35 | 1003.8 |
| 20260505001620 | 20 | 212 | 0.0 | 4.8 | 0.00 | 0.00 | 0.00 | 33 | 1003.6 |
| 20260505000034 | 21 | 212 | 3.2 | 6.4 | 0.00 | 0.00 | 0.00 | 32 | 1003.6 |
| 20260504234517 | 21 | 228 | 3.2 | 14.5 | 0.00 | 0.00 | 0.00 | 31 | 1003.4 |
| 20260504233018 | 22 | 194 | 6.4 | 14.5 | 0.00 | 0.00 | 0.00 | 29 | 1003.3 |
| 20260504231517 | 22 | 197 | 6.4 | 16.1 | 0.00 | 0.00 | 0.00 | 28 | 1003.3 |
| 20260504230016 | 22 | 217 | 6.4 | 27.4 | 0.00 | 0.00 | 0.00 | 26 | 1003.2 |
| 20260504224514 | 22 | 233 | 6.4 | 24.1 | 0.00 | 0.00 | 0.00 | 28 | 1003.0 |
| 20260504223013 | 22 | 249 | 9.7 | 24.1 | 0.00 | 0.00 | 0.00 | 26 | 1003.1 |
| 20260504221513 | 23 | 162 | 4.8 | 17.7 | 0.00 | 0.00 | 0.00 | 28 | 1003.2 |
| 20260504220013 | 23 | 200 | 14.5 | 27.4 | 0.00 | 0.00 | 0.00 | 27 | 1003.3 |
| 20260504214508 | 22 | 188 | 8.0 | 20.9 | 0.00 | 0.00 | 0.00 | 27 | 1003.4 |
| 20260504213007 | 23 | 231 | 14.5 | 27.4 | 0.00 | 0.00 | 0.00 | 27 | 1003.4 |
| 20260504211505 | 23 | 244 | 12.9 | 22.5 | 0.00 | 0.00 | 0.00 | 26 | 1003.3 |
| 20260504210003 | 23 | 237 | 12.9 | 27.4 | 0.00 | 0.00 | 0.00 | 29 | 1003.4 |
| 20260504204503 | 23 | 223 | 11.3 | 24.1 | 0.00 | 0.00 | 0.00 | 30 | 1003.5 |
| 20260504203110 | 22 | 244 | 20.9 | 35.4 | 0.00 | 0.00 | 0.00 | 27 | 1003.6 |
| 20260504201600 | 22 | 246 | 20.9 | 32.2 | 0.00 | 0.00 | 0.00 | 30 | 1003.8 |
| 20260504200055 | 22 | 217 | 17.7 | 30.6 | 0.00 | 0.00 | 0.00 | 30 | 1004.2 |
| 20260504194553 | 21 | 140 | 9.7 | 32.2 | 0.00 | 0.00 | 0.00 | 33 | 1004.4 |
| 20260504193050 | 22 | 205 | 17.7 | 33.8 | 0.00 | 0.00 | 0.00 | 31 | 1004.7 |
| 20260504191547 | 22 | 227 | 17.7 | 38.6 | 0.00 | 0.00 | 0.00 | 31 | 1004.8 |
| 20260504190044 | 21 | 239 | 17.7 | 43.5 | 0.00 | 0.00 | 0.00 | 33 | 1005.1 |
| 20260504184542 | 21 | 274 | 19.3 | 30.6 | 0.00 | 0.00 | 0.00 | 35 | 1005.2 |
| 20260504183039 | 21 | 229 | 19.3 | 38.6 | 0.00 | 0.00 | 0.00 | 35 | 1005.4 |
| 20260504181537 | 21 | 262 | 20.9 | 33.8 | 0.00 | 0.00 | 0.00 | 35 | 1005.4 |
| 20260504180036 | 21 | 262 | 17.7 | 33.8 | 0.00 | 0.00 | 0.00 | 37 | 1005.6 |
| 20260504174531 | 20 | 247 | 16.1 | 40.2 | 0.00 | 0.00 | 0.00 | 39 | 1005.6 |
| 20260504173029 | 20 | 215 | 19.3 | 30.6 | 0.00 | 0.00 | 0.00 | 40 | 1005.7 |
| 20260504171526 | 20 | 245 | 14.5 | 29.0 | 0.00 | 0.00 | 0.00 | 41 | 1005.9 |
| 20260504081532 | 9 | 165 | 8.0 | 14.5 | 0.00 | 0.00 | 0.00 | 55 | 1008.7 |
| 20260504050007 | 9 | 185 | 0.0 | 0.0 | 0.00 | 0.00 | 0.00 | 56 | 1009.5 |
| 20260504044504 | 9 | 185 | 1.6 | 9.7 | 0.00 | 0.00 | 0.00 | 54 | 1009.4 |
| 20260504043002 | 9 | 243 | 1.6 | 6.4 | 0.00 | 0.00 | 0.00 | 56 | 1009.7 |
| 20260504041602 | 9 | 238 | 1.6 | 4.8 | 0.00 | 0.00 | 0.00 | 55 | 1009.7 |